Regional Weather Roundup
Issued by NWS

Home | Current Version | Previous Version | Text Only | Print | Product List | Glossary On
Versions: 1 2 3 4 5 6 7 8 9 10 11 12 13 14 15 16 17 18 19 20 21 22 23 24 25 26 27 28 29 30 31 32 33 34 35 36 37 38 39 40 41 42 43 44 45 46 47 48 49 50
000
ASUS44 KLUB 292101
RWRTX
WEST TEXAS WEATHER ROUNDUP
NATIONAL WEATHER SERVICE LUBBOCK TX
400 PM CDT FRI MAY 29 2015

NOTE: "FAIR" INDICATES FEW OR NO CLOUDS BELOW 12,000 FEET WITH NO
SIGNIFICANT WEATHER AND/OR OBSTRUCTIONS TO VISIBILITY.

TXZ004-006>008-010-012-014-016-OKZ002-292200-
TEXAS PANHANDLE/OKLAHOMA PANHANDLE

CITY           SKY/WX    TMP DP  RH WIND       PRES   REMARKS
AMARILLO       MOSUNNY   77  51  40 N13       30.05S
BORGER         PTSUNNY   80  53  39 NE7       30.02F
CANADIAN       MOSUNNY   79  62  56 N13       29.98F
DALHART        MOSUNNY   77  51  40 NE16      30.09S
DUMAS          MOSUNNY   74  52  44 N9        30.06F
GUYMON         PTSUNNY   76  55  48 N15       30.04S
$$

TXZ026-029-035-045-048-292200-
SOUTHERN PANHANDLE/SOUTH PLAINS/ROLLING PLAINS

CITY           SKY/WX    TMP DP  RH WIND       PRES   REMARKS
CHILDRESS      SUNNY     80  62  54 VRB5      29.96F
LUBBOCK        MOSUNNY   81  55  40 VRB3      30.01F
$$

TXZ052-054-060>062-072-078-127-140-154-169-292200-
PERMIAN BASIN/CONCHO VALLEY/BIG COUNTRY/EDWARDS PLATEAU

CITY           SKY/WX    TMP DP  RH WIND       PRES   REMARKS
ABILENE        MOSUNNY   84  67  56 SW9       29.96F
JUNCTION       SUNNY     85  66  53 S10G18    29.95F
MIDLAND        SUNNY     83  62  49 VRB3      29.97F
ODESSA         SUNNY     83  61  47 NE6       29.98F
SAN ANGELO     PTSUNNY   83  67  58 S10       29.94F
SWEETWATER     MOSUNNY   82  65  56 S7        30.00F
WINK           SUNNY     90  55  30 VRB5      29.94F
$$

TXZ055-058-074-075-080-082-292200-
FAR WEST/SOUTHWEST MOUNTAINS/TRANS PECOS

CITY           SKY/WX    TMP DP  RH WIND       PRES   REMARKS
DRYDEN           N/A     91  66  43 SE8       29.89F
EL PASO        MOSUNNY   92  21   7 VRB3      29.98F
FORT STOCKTON  SUNNY     83  58  42 N7        29.96F
GUADALUPE PASS MOSUNNY   82  49  31 E14       30.12F
MARFA          SUNNY     90  30  12 SW10      30.08F
$$

TXZ014-016-019-021>030-083-292200
TEXAS TECH WEST TEXAS MESONET/TEXAS PANHANDLE/NORTHERN SOUTH PLAINS

CITY           SKY/WX    TMP DP  RH WIND       PRES   REMARKS
ABERNATHY 5ENE   N/A     80  57  45 NE3       30.03F
AMARILLO 7SSE    N/A     78  54  43 N10       30.06S
AMHERST 1NE      N/A     80  54  41 E8        30.03S
BOOTLEG 11WNW    N/A     76  53  46 NE7       30.11F
CANADIAN 6E      N/A     78  59  51 N9        29.98S
CAPROCK CYN SP   N/A     79  57  46 N6        30.00S
CHILDRESS 2NNE   N/A     79  62  56 N7        29.96F
CLARENDON 2WSW   N/A     79  56  45 N8        30.01S
CLAUDE 12SW      N/A     78  58  48 NE7       30.04S
DIMMITT 2NE      N/A     77  55  46 N8        30.06S
FLOYDADA 2NNE    N/A     79  56  45 N6        30.02S
FRIONA 2NE       N/A     77  55  45 NE7       30.08S
GOODLETT 3W      N/A     79  60  52 NW5       29.94F
HART 3N          N/A     77  56  48 N10       30.05S
HEREFORD 2NW     N/A     78  50  37 E3        30.06S
MCLEAN 1E        N/A     78  55  44 N9        29.99F
MEMPHIS 1NE      N/A     80  62  54 N6        29.97F
MULESHOE 2SSW    N/A     80  53  39 NE3       30.04F
OLTON 6S         N/A     78  53  40 NE8       30.03S
PALO DURO SP     N/A     80  54  39 NE10      30.05S
PAMPA 2E         N/A     76  61  57 N9        30.03S
PLAINVIEW 1S     N/A     78  58  50 N7        30.02F
SILVERTON 7ESE   N/A     78  57  47 NE7       30.02F
TULIA 2ENE       N/A     77  58  52 N8        30.04S
TURKEY 2WSW      N/A     81  61  50 NE8       29.98S
UMBARGER 3NNE    N/A     77  54  44 N8        30.06F
$$

TXZ033>036-039>041-045>048-292200
TEXAS TECH WEST TEXAS MESONET/SOUTH PLAINS

CITY           SKY/WX    TMP DP  RH WIND       PRES   REMARKS
AIKEN 3WSW       N/A     78  60  53 N12       30.04S
ANDREWS 2NE      N/A     83  59  44 NE2       30.00F
ANTON 6SSW       N/A     81  57  43 SW1       30.02F
BROWNFIELD 2S    N/A     79  61  52 E9        30.02S
DENVR CTY 7WNW   N/A     82  52  34 E6        30.01F
GAIL 2ESE        N/A     81  63  55 W1        29.97F
LAMESA 2SE       N/A     80  64  56 E6        30.00F
LEVELLAND 4S     N/A     78  57  47 E5        30.03S
LUBBOCK 3WNW     N/A     80  54  40 N5        30.02S
MORTON 1ENE      N/A     82  54  38 E9        30.03F
ODONNELL 1N      N/A     78  62  57 NE7       30.00F
PLAINS 3N        N/A     80  60  50 E6        30.03S
RALLS 1SE        N/A     80  58  47 E5        30.02S
REESE CENTER     N/A     80  55  42 NE1       30.02F
SEAGRAVES 1SW    N/A     84  51  31 NE5       30.00S
SEMINOLE 2NNE    N/A     83  55  38 E7        29.99F
SLATON 2NE       N/A     79  58  48 NE2       30.01S
SNYDER 3E        N/A     82  64  54 SE2       29.97F
SUNDOWN 8SW      N/A     79  60  53 E6        30.03F
TAHOKA 3NNE      N/A     79  59  51 NE2       30.01F
WOLFFORTH 6SSW   N/A     80  61  51 E6        30.02F
$$

TXZ031-032-036>038-042>044-292200-
TEXAS TECH WEST TEXAS MESONET/ROLLING PLAINS

CITY           SKY/WX    TMP DP  RH WIND       PRES   REMARKS
ASPERMONT 3NE    N/A     83  65  54 SW5       29.95F
FLUVANNA 3WNW    N/A     80  63  57 E3        29.99S
GRAHAM 5SSW      N/A     79  60  52 NE5       30.00S
GUTHRIE 10WSW    N/A     80  61  51 N6        29.96F
HASKELL 1NW      N/A     83  60  45 S3        29.94F
JAYTON 1SSE      N/A     81  60  49 NE5       29.96F
KNOX CITY 3NW    N/A     82  58  44 SW2       29.94F
LK A HENRY 1NW   N/A     82  60  47 CALM      29.97S
NORTHFIELD 1S    N/A     80  63  55 NE5       29.97S
ODELL 4ENE       N/A     82  62  52 SW3       29.94S
PADUCAH 10SW     N/A     82  60  47 N6        29.96S
POST 1NE         N/A     82  62  49 NE6       29.98S
RRING SPRGS 3N   N/A     79  61  53 N6        29.99F
SEYMOUR 3NW      N/A     81  63  53 W1        29.94F
SPUR 1W          N/A     80  62  54 NE3       29.97F
WEINERT 2NNE     N/A     82  64  53 SW6       29.95S
WHITE RVR 6NE    N/A     81  60  49 E5        29.98F
$$

TXZ052-054-060>062-072-078-127-140-154-169-292200-
TEXAS TECH WEST TEXAS MESONET/PERMIAN BASIN/
CONCHO VALLEY/BIG COUNTRY/EDWARDS PLATEAU

CITY           SKY/WX    TMP DP  RH WIND       PRES   REMARKS
COYANOSA 2N      N/A     85  62  45 NE3       29.94F
JUNCTION 1SSW    N/A     84  67  57 S12       29.96F
MERTZON 3NNE     N/A     82  69  65 S8        29.96F
SAN ANGELO 7NW   N/A     84  65  52 S7        29.95S
STRLNG CT 4WSW   N/A     84  69  61 S7        29.96F
ST LAWRNCE 5SW   N/A     84  63  49 SW2       29.96F
SWEETWATR 11SW   N/A     80  67  64 SE6       29.99F
WALL 1E          N/A     84  66  53 S10       29.95F
$$

TXZ055-058-074-075-080-082-292200-
TEXAS TECH WEST TEXAS MESONET/FAR WEST/SOUTHWEST MOUNTAINS/TRANS PECOS

CITY           SKY/WX    TMP DP  RH WIND       PRES   REMARKS
PRSMN GAP BBNP   N/A     96  48  19 SE9       29.89F
$$


USA.gov is the U.S. government's official web portal to all federal, state and local government web resources and services.